Find Mozhaets-4

NORAD ID: 27939 Int'l Des: 2003-042 Owner: MOZHA Country: RU operational
LEOCIRCULARRETROGRADESSO

Live Position

Loading 3D Globe...

About Mozhaets-4

Description loading...

Upcoming Passes

Passes for default location (London). Set your location on the main map for personalized predictions.

Altitude History

Loading altitude history...

Two-Line Element Set

1 27939U 03042A 26105.60410414 .00000208 00000-0 40417-4 0 9993
2 27939 98.3463 288.1999 0012499 105.6136 344.1161 14.73352496206336
Epoch: Apr 15, 2026 • Age: 8 hours

Current Status

Altitude 654.8 km
Velocity 7.54 km/s
Sub-Earth Point 78.25°N, 31.3°W
Launch Date Sep 27, 2003
Age 22.5 years
Type other

Technical Details

Classification Payload
Mass 64.00 kg
Dry Mass 64.00 kg
Total Mass 64.00 kg
Length 1.00 m
Diameter 1.00 m
Span 1.00 m
Shape Poly
Manufacturer NPOPMR
Bus Type Strela-1M
Phase Status In Orbit
Owner/State MOZHA/RU

Most Searched